Regional Weather Roundup
Issued by NWS

Home | Current Version | Previous Version | Graphics & Text | Print | Product List | Glossary On
Versions: 1 2 3 4 5 6 7 8 9 10 11 12 13 14 15 16 17 18 19 20 21 22 23 24 25 26 27 28 29 30 31 32 33 34 35 36 37 38 39 40 41 42 43 44 45 46 47 48 49 50
000
ASUS43 KOAX 300610
RWRNE

WEATHER ROUNDUP FOR NEBRASKA
NATIONAL WEATHER SERVICE OMAHA NE
100 AM CDT SAT AUG 30 2014

NOTES: SATELLITE DATA IS BEING USED TO AUGMENT CLOUD COVER ABOVE
       12000 FEET.
       "FAIR" INDICATES FEW OR NO CLOUDS BELOW 12,000 FEET WITH NO
       SIGNIFICANT WEATHER AND/OR OBSTRUCTIONS TO VISIBILITY.

  * THESE STATIONS DO NOT REPORT WEATHER SUCH AS RAIN...SNOW OR FOG.

NEZ001>004-019>022-054>056-300700-
NEBRASKA PANHANDLE

CITY           SKY/WX    TMP DP  RH WIND       PRES   REMARKS
SCOTTSBLUFF    PTCLDY    59  56  89 E7        30.08F
6HR MIN TEMP:  59; 6HR MAX TEMP:  78;

ALLIANCE       MOCLDY    57  54  89 E7        30.07F
6HR MIN TEMP:  55; 6HR MAX TEMP:  75;

CHADRON        CLEAR     56  54  93 CALM      30.04S
6HR MIN TEMP:  56; 6HR MAX TEMP:  75;

KIMBALL        CLEAR     56  51  83 CALM      30.12S
SIDNEY         PTCLDY    60  53  77 SE5       30.12S
6HR MIN TEMP:  59; 6HR MAX TEMP:  78;

$$

NEZ057>060-069>072-079>082-300700-
SOUTHWEST NEBRASKA

CITY           SKY/WX    TMP DP  RH WIND       PRES   REMARKS
NORTH PLATTE   CLEAR     58  56  93 CALM      30.03R
6HR MIN TEMP:  58; 6HR MAX TEMP:  73; 6HR PCP: TRACE;

IMPERIAL       MOCLDY    64  57  78 NE5       30.06R
6HR MIN TEMP:  63; 6HR MAX TEMP:  80; 6HR PCP:  0.01;

LEXINGTON      CLEAR     61  59  93 W3        29.99S
MCCOOK         PTCLDY    63  60  90 NE6       30.01F
6HR MIN TEMP:  63; 6HR MAX TEMP:  85;

OGALLALA       PTCLDY    58  55  89 E3        30.05S
$$

NEZ005>010-023>029-035>040-094-300700-
NORTH CENTRAL NEBRASKA

CITY           SKY/WX    TMP DP  RH WIND       PRES   REMARKS
VALENTINE      CLEAR     57  55  93 NW7       30.00F
6HR MIN TEMP:  56; 6HR MAX TEMP:  76;

AINSWORTH      CLEAR     60  55  85 NW6       29.99S
BROKEN BOW     CLEAR     61  57  87 NW7       29.98S
6HR MIN TEMP:  60; 6HR MAX TEMP:  75; 6HR PCP:  0.24;

O`NEILL        PTCLDY    65  62  90 NW10      29.94R
ORD            PTCLDY    64  60  87 NW9       29.94R
6HR MIN TEMP:  63; 6HR MAX TEMP:  78; 6HR PCP:  0.02;

THEDFORD       CLEAR     60  57  89 W6        30.03S
$$

NEZ041-046>049-061>064-073>077-083>087-300700-
SOUTH CENTRAL NEBRASKA

CITY           SKY/WX    TMP DP  RH WIND       PRES   REMARKS
GRAND ISLAND   FAIR      66  61  84 N8        29.93R
6HR MIN TEMP:  66; 6HR MAX TEMP:  78;

AURORA         FAIR      64  64  99 NW5       29.91R
HASTINGS       FAIR      64  59  83 W5        29.93S
6HR MIN TEMP:  64; 6HR MAX TEMP:  78;

HEBRON         FAIR      65  62  87 CALM      29.91R
HOLDREGE       FAIR      62  58  87 CALM      29.98F
KEARNEY *      FAIR      64  57  77 W8        29.97R
YORK           FAIR      63 N/A N/A W6        29.90R
$$

NEZ011>018-030>034-042>045-300700-
NORTHEAST NEBRASKA

CITY           SKY/WX    TMP DP  RH WIND       PRES   REMARKS
NORFOLK        FAIR      65  61  87 NW5       29.89R
6HR MIN TEMP:  64; 6HR MAX TEMP:  75;

ALBION         FAIR      62  58  88 NW5       29.91R
BLAIR          FAIR      67  65  93 CALM      29.84R
FREMONT        FAIR      66  65  94 W6        29.86R
TEKAMAH        FAIR      64  63  96 CALM      29.84R FOG
6HR MIN TEMP:  64; 6HR MAX TEMP:  69; 6HR PCP: TRACE;

WAYNE          FAIR      64  63  94 W6        29.87R
$$

NEZ050>053-065>068-078-088>093-300700-
SOUTHEAST NEBRASKA

CITY           SKY/WX    TMP DP  RH WIND       PRES   REMARKS
LINCOLN        FAIR      67  65  93 W5        29.87R
6HR MIN TEMP:  67; 6HR MAX TEMP:  72;

OMAHA EPPLEY   FAIR      67  64  90 CALM      29.84R
6HR MIN TEMP:  67; 6HR MAX TEMP:  72;

BEATRICE       FOG       64  64 100 CALM      29.87F VSB 1/4
FALLS CITY     FAIR      69  67  93 W3        29.85S
6HR MIN TEMP:  69; 6HR MAX TEMP:  81; 6HR PCP: TRACE;

NEBRASKA CITY  FAIR      67  67 100 W7        29.85S
PLATTSMOUTH    FAIR      67  65  92 CALM      29.85R
$$

NEZ044-045-051>053-067-300700-
OMAHA AREA

CITY           SKY/WX    TMP DP  RH WIND       PRES   REMARKS
OMAHA EPPLEY   FAIR      67  64  90 CALM      29.84R
6HR MIN TEMP:  67; 6HR MAX TEMP:  72;

BLAIR          FAIR      67  65  93 CALM      29.84R
FREMONT        FAIR      66  65  94 W6        29.86R
MILLARD        FAIR      67  65  94 CALM      29.84R
OFFUTT AFB     FAIR      67  67 100 SW3       29.84R
PLATTSMOUTH    FAIR      67  65  92 CALM      29.85R
WAHOO          FAIR      67  64  89 NW3       29.85R
$$


USA.gov is the U.S. government's official web portal to all federal, state and local government web resources and services.